Huron, SD

6:36 PM CDT on April 24, 2017 (GMT -0500)
Huron Regional

Weather History for KHON - November, 2012

Change the Weather History Date:

Friday, November 9, 2012

  Actual Average Record
Temperature  
Mean Temperature 44 °F 36 °F  
Max Temperature 49 °F 47 °F 71 °F (1937)
Min Temperature 38 °F 26 °F 0 °F (1890)
Degree Days  
Heating Degree Days 21 29  
Month to date heating degree days 234 237  
Since 1 July heating degree days 987 967  
Cooling Degree Days 0 0  
Month to date cooling degree days 0 0  
Year to date cooling degree days 1083 742  
Moisture  
Dew Point 37 °F    
Average Humidity 79    
Maximum Humidity 92    
Minimum Humidity 66    
Precipitation  
Precipitation 0.00 in 0.03 in 0.57 in (1919)
Month to date precipitation 0.11 0.31  
Year to date precipitation 18.47 21.82  
Snow  
Snow 0.00 in 0.20 in 4.70 in (1919)
Month to date snowfall T 1.4  
Since 1 July snowfall 1.0 2.5  
Since 1 September snowfall 1.0 2.5  
Snow Depth 0.00 in    
Sea Level Pressure  
Sea Level Pressure 29.90 in    
Wind  
Wind Speed 12 mph (ENE)    
Max Wind Speed 16 mph    
Max Gust Speed 21 mph    
Visibility 10 miles    
Events      
T = Trace of Precipitation, MM = Missing Value Source: NWS Daily Summary

Daily Weather History Graph

Daily Weather History Graph

Search for Another Location

Airport or City:

Trip Planner

Search our weather history database for the weather conditions in past years. The results will help you decide how hot, cold, wet, or windy it might be!

Date:

Astronomy

Nov. 09, 2012 Rise Set
Actual Time 7:21 AM CST 5:11 PM CST
Civil Twilight 6:50 AM CST 5:42 PM CST
Nautical Twilight 6:15 AM CST 6:17 PM CST
Astronomical Twilight 5:41 AM CST 6:51 PM CST
Moon 2:11 AM CST (11/9) 2:34 PM CST (11/9)
Length of Visible Light 10h 51m
Length of Day
9h 49m
Waning Crescent, 23% of the Moon is Illuminated
Nov 9
Waning Crescent
Nov 13
New
Nov 20
First Quarter
Nov 28
Full
Dec 6
Last Quarter

Hourly Weather History & Observations

Time (CST) Temp. Windchill Dew Point Humidity Pressure Visibility Wind Dir Wind Speed Gust Speed Precip Events Conditions
12:35 AM 37.4 °F 30.3 °F 33.8 °F 87% 30.01 in 10.0 mi NE 10.4 mph - N/A   Overcast
12:55 AM 37.9 °F 31.5 °F 34.0 °F 86% 30.03 in 10.0 mi NE 9.2 mph - N/A   Overcast
1:55 AM 37.9 °F 30.9 °F 34.0 °F 86% 30.02 in 10.0 mi NE 10.4 mph - N/A   Overcast
2:55 AM 39.0 °F 32.8 °F 35.1 °F 86% 30.03 in 10.0 mi NNE 9.2 mph - N/A   Overcast
3:47 AM 37.4 °F 29.3 °F 35.6 °F 93% 30.00 in 10.0 mi NNE 12.7 mph - N/A   Overcast
3:55 AM 37.9 °F 29.2 °F 35.1 °F 89% 30.03 in 10.0 mi NNE 15.0 mph 19.6 mph N/A   Overcast
4:55 AM 37.9 °F 30.5 °F 35.1 °F 89% 30.02 in 10.0 mi NE 11.5 mph - N/A   Overcast
5:06 AM 37.4 °F 30.3 °F 35.6 °F 93% 29.99 in 10.0 mi NE 10.4 mph - N/A   Overcast
5:55 AM 37.9 °F 30.5 °F 35.1 °F 89% 30.02 in 10.0 mi NE 11.5 mph - N/A   Overcast
6:55 AM 39.0 °F 32.8 °F 34.0 °F 82% 30.02 in 10.0 mi NE 9.2 mph - N/A   Overcast
7:55 AM 39.0 °F 31.8 °F 35.1 °F 86% 30.01 in 9.0 mi East 11.5 mph - N/A   Overcast
8:55 AM 39.9 °F 32.9 °F 35.1 °F 83% 29.99 in 9.0 mi ENE 11.5 mph - N/A   Overcast
9:55 AM 41.0 °F 32.8 °F 36.0 °F 82% 29.96 in 9.0 mi East 16.1 mph 20.7 mph N/A   Overcast
10:55 AM 43.0 °F 36.4 °F 36.0 °F 76% 29.96 in 9.0 mi East 12.7 mph - N/A   Mostly Cloudy
11:02 AM 42.8 °F 36.6 °F 35.6 °F 76% 29.92 in 9.0 mi East 11.5 mph - N/A   Scattered Clouds
11:55 AM 46.0 °F 40.2 °F 37.0 °F 71% 29.92 in 10.0 mi ENE 12.7 mph - N/A   Scattered Clouds
12:03 PM 46.4 °F 40.4 °F 37.4 °F 71% 29.88 in 10.0 mi ENE 13.8 mph - N/A   Mostly Cloudy
12:55 PM 46.9 °F - 37.0 °F 68% 29.89 in 10.0 mi ENE 11.5 mph - N/A   Overcast
1:55 PM 48.0 °F - 37.0 °F 66% 29.86 in 10.0 mi East 10.4 mph - N/A   Mostly Cloudy
2:11 PM 48.2 °F - 37.4 °F 66% 29.83 in 10.0 mi East 11.5 mph - N/A   Scattered Clouds
2:55 PM 48.0 °F - 37.9 °F 68% 29.84 in 10.0 mi East 12.7 mph - N/A   Clear
3:55 PM 48.0 °F - 37.9 °F 68% 29.83 in 10.0 mi East 11.5 mph - N/A   Clear
4:55 PM 46.9 °F - 39.0 °F 74% 29.82 in 10.0 mi East 12.7 mph - N/A   Clear
5:55 PM 46.0 °F 42.5 °F 39.0 °F 76% 29.83 in 10.0 mi NE 6.9 mph - N/A   Mostly Cloudy
6:55 PM 46.9 °F - 39.9 °F 77% 29.82 in 9.0 mi ENE 10.4 mph - N/A   Overcast
7:55 PM 46.9 °F - 41.0 °F 80% 29.81 in 9.0 mi East 6.9 mph - N/A   Overcast
8:55 PM 48.0 °F - 41.0 °F 77% 29.78 in 9.0 mi East 11.5 mph - N/A   Unknown
9:46 PM 48.2 °F - 41.0 °F 76% 29.73 in 9.0 mi East 11.5 mph 19.6 mph N/A   Overcast
9:55 PM 48.0 °F - 41.0 °F 77% 29.75 in 9.0 mi East 15.0 mph 21.9 mph N/A   Overcast
10:55 PM 46.9 °F - 41.0 °F 80% 29.73 in 9.0 mi East 13.8 mph 20.7 mph N/A   Overcast
11:55 PM 46.9 °F - 42.1 °F 83% 29.70 in 9.0 mi East 9.2 mph - N/A   Overcast